DW8300 Weather Reports


time (UTC)temp
C
wind
direction
speed
KPH
gust
KPH
rain 1hr
cm
rain 24hr
cm
rain mn
cm
humidity
%
barometer
mb
20260510072229 10 21 0.0 3.2 0.00 0.00 0.00 92 1011.1
20260510071732 10 268 0.0 0.0 0.00 0.00 0.00 91 1011.1
20260510071231 10 269 0.0 0.0 0.00 0.00 0.00 91 1010.9
20260510070714 10 269 0.0 0.0 0.00 0.00 0.00 91 1010.9
20260510070155 10 269 0.0 0.0 0.00 0.00 0.00 91 1010.9
20260510065653 10 269 0.0 0.0 0.00 0.00 0.00 89 1010.8
20260510065143 10 269 0.0 0.0 0.00 0.00 0.00 89 1010.9
20260510064626 11 269 0.0 0.0 0.00 0.00 0.00 89 1011.0
20260510064129 11 269 0.0 0.0 0.00 0.00 0.00 89 1010.9
20260510063001 11 269 0.0 0.0 0.00 0.00 0.00 90 1010.8
20260510062447 11 269 0.0 0.0 0.00 0.00 0.00 90 1010.7
20260510061936 11 269 0.0 0.0 0.00 0.00 0.00 90 1010.7
20260510061422 11 269 0.0 0.0 0.00 0.00 0.00 90 1010.7
20260510060239 11 269 0.0 0.0 0.00 0.00 0.00 89 1010.7
20260510055742 11 269 0.0 0.0 0.00 0.00 0.00 89 1010.7
20260510054608 11 269 0.0 0.0 0.00 0.00 0.00 88 1010.7
20260510054107 11 269 0.0 0.0 0.00 0.00 0.00 87 1010.7
20260510053615 11 269 0.0 0.0 0.00 0.00 0.00 88 1010.7
20260510053111 11 269 0.0 0.0 0.00 0.00 0.00 88 1010.7
20260510052605 11 269 0.0 0.0 0.00 0.00 0.00 88 1010.6
20260510052046 11 269 0.0 0.0 0.00 0.00 0.00 88 1010.6
20260510051554 11 269 0.0 0.0 0.00 0.00 0.00 88 1010.6
20260510051056 11 269 0.0 0.0 0.00 0.00 0.00 88 1010.5
20260510045912 11 268 0.0 0.0 0.00 0.00 0.00 87 1010.6
20260510045359 11 269 0.0 0.0 0.00 0.00 0.00 87 1010.6
20260510044259 11 269 0.0 0.0 0.00 0.00 0.00 88 1010.5
20260510043741 11 269 0.0 0.0 0.00 0.00 0.00 86 1010.5
20260510043237 11 269 0.0 0.0 0.00 0.00 0.00 85 1010.7
20260510042746 11 269 0.0 0.0 0.00 0.00 0.00 84 1010.7
20260510042234 11 269 0.0 0.0 0.00 0.00 0.00 84 1010.6
20260510041717 12 269 0.0 0.0 0.00 0.00 0.00 84 1010.7
20260510041203 12 269 0.0 0.0 0.00 0.00 0.00 83 1010.6
20260510040703 12 269 0.0 0.0 0.00 0.00 0.00 82 1010.5
20260510040203 12 269 0.0 0.0 0.00 0.00 0.00 82 1010.5
20260510035646 12 269 0.0 0.0 0.00 0.00 0.00 81 1010.5
20260510035138 12 269 0.0 0.0 0.00 0.00 0.00 81 1010.5
20260510034646 12 269 0.0 0.0 0.00 0.00 0.00 80 1010.5
20260510034153 12 269 0.0 0.0 0.00 0.00 0.00 80 1010.5
20260510033648 12 269 0.0 0.0 0.00 0.00 0.00 80 1010.5
20260510033155 12 269 0.0 0.0 0.00 0.00 0.00 80 1010.5
20260510032638 12 269 0.0 0.0 0.00 0.00 0.00 79 1010.5
20260510032148 12 269 0.0 0.0 0.00 0.00 0.00 79 1010.5
20260510031633 13 269 0.0 0.0 0.00 0.00 0.00 79 1010.5
20260510031137 13 269 0.0 0.0 0.00 0.00 0.00 79 1010.4
20260510030633 13 269 0.0 0.0 0.00 0.00 0.00 79 1010.5
20260510025511 13 269 0.0 0.0 0.00 0.00 0.00 78 1010.5
20260510024957 13 269 0.0 0.0 0.00 0.00 0.00 77 1010.6
20260510023815 13 269 0.0 0.0 0.00 0.00 0.00 77 1010.4
20260510023304 13 268 0.0 0.0 0.00 0.00 0.00 76 1010.3
20260510022745 13 269 0.0 0.0 0.00 0.00 0.00 76 1010.3
20260510022229 13 269 0.0 0.0 0.00 0.00 0.00 76 1010.2
20260510021723 13 269 0.0 0.0 0.00 0.00 0.00 75 1010.1
20260510021219 13 269 0.0 0.0 0.00 0.00 0.00 74 1010.2
20260510020104 14 131 0.0 0.0 0.00 0.00 0.00 74 1010.0
20260510015553 14 131 0.0 0.0 0.00 0.00 0.00 73 1009.9
20260510015034 14 131 0.0 0.0 0.00 0.00 0.00 72 1009.9
20260510013912 15 131 0.0 0.0 0.00 0.00 0.00 71 1009.9
20260510013402 15 131 0.0 0.0 0.00 0.00 0.00 70 1009.8
20260510012854 15 131 0.0 0.0 0.00 0.00 0.00 70 1009.7
20260510012348 15 131 0.0 0.0 0.00 0.00 0.00 69 1009.6
20260510011831 16 131 0.0 0.0 0.00 0.00 0.00 68 1009.5
20260510011315 16 131 0.0 0.0 0.00 0.00 0.00 68 1009.5
20260510010803 16 131 0.0 0.0 0.00 0.00 0.00 67 1009.4
20260510005630 16 130 0.0 0.0 0.00 0.00 0.00 66 1009.1
20260510003918 16 130 0.0 0.0 0.00 0.00 0.00 64 1008.8
20260510002737 17 130 0.0 0.0 0.00 0.00 0.00 63 1008.7
20260510002222 17 130 0.0 0.0 0.00 0.00 0.00 63 1008.6
20260510001712 17 130 0.0 0.0 0.00 0.00 0.00 62 1008.6
20260510001156 17 130 0.0 0.0 0.00 0.00 0.00 62 1008.6
20260510000034 18 130 0.0 0.0 0.00 0.00 0.00 60 1008.6
20260509235519 18 130 0.0 0.0 0.00 0.00 0.00 60 1008.7
20260509235025 19 129 0.0 0.0 0.00 0.00 0.00 60 1008.8
20260509234516 19 129 0.0 0.0 0.00 0.00 0.00 59 1008.8
20260509234017 20 129 0.0 0.0 0.00 0.00 0.00 57 1008.8
20260509233516 20 128 0.0 0.0 0.00 0.00 0.00 56 1008.8
20260509233023 20 129 0.0 0.0 0.00 0.00 0.00 57 1008.8
20260509232526 20 129 0.0 1.6 0.00 0.00 0.00 55 1008.9
20260509232025 20 129 0.0 0.0 0.00 0.00 0.00 56 1008.8
20260509230850 20 132 0.0 0.0 0.00 0.00 0.00 54 1008.8
20260509225708 21 135 0.0 0.0 0.00 0.00 0.00 55 1008.8
20260509225156 21 135 0.0 0.0 0.00 0.00 0.00 55 1008.7
20260509224641 21 136 0.0 0.0 0.00 0.00 0.00 55 1008.8
20260509224124 21 136 0.0 0.0 0.00 0.00 0.00 53 1008.8
20260509223619 21 135 0.0 0.0 0.00 0.00 0.00 53 1008.7
20260509223100 21 135 0.0 0.0 0.00 0.00 0.00 51 1008.7
20260509221949 21 137 0.0 0.0 0.00 0.00 0.00 52 1008.8
20260509221441 21 130 0.0 1.6 0.00 0.00 0.00 53 1008.7
20260509220948 22 140 0.0 0.0 0.00 0.00 0.00 50 1008.6
20260509220442 22 134 0.0 1.6 0.00 0.00 0.00 49 1008.6
20260509215931 22 153 0.0 0.0 0.00 0.00 0.00 50 1008.6
20260509215440 22 148 0.0 1.6 0.00 0.00 0.00 52 1008.5
20260509214929 22 123 0.0 0.0 0.00 0.00 0.00 50 1008.5
20260509214412 22 235 0.0 0.0 0.00 0.00 0.00 49 1008.6
20260509213903 22 235 0.0 0.0 0.00 0.00 0.00 49 1008.6
20260509213353 22 234 0.0 0.0 0.00 0.00 0.00 51 1008.6
20260509212903 22 234 0.0 3.2 0.00 0.00 0.00 49 1008.6
20260509212350 21 47 0.0 0.0 0.00 0.00 0.00 52 1008.6
20260509211854 21 51 0.0 3.2 0.00 0.00 0.00 50 1008.6
20260509210714 21 88 0.0 0.0 0.00 0.00 0.00 54 1008.7
20260509210205 20 53 0.0 0.0 0.00 0.00 0.00 55 1008.7
20260509205650 20 48 0.0 1.6 0.00 0.00 0.00 55 1008.8
20260509205143 20 51 0.0 0.0 0.00 0.00 0.00 55 1008.9
20260509203420 19 101 0.0 1.6 0.00 0.00 0.00 56 1009.0
20260509202928 19 128 0.0 0.0 0.00 0.00 0.00 57 1009.0
20260509202433 19 126 0.0 0.0 0.00 0.00 0.00 55 1009.0
20260509201943 19 123 0.0 0.0 0.00 0.00 0.00 55 1008.9
20260509201450 19 124 0.0 0.0 0.00 0.00 0.00 56 1009.0
20260509200956 20 81 0.0 3.2 0.00 0.00 0.00 54 1009.0
20260509200457 20 130 0.0 0.0 0.00 0.00 0.00 52 1009.0
20260509195951 20 131 0.0 0.0 0.00 0.00 0.00 52 1009.0
20260509195439 20 126 0.0 1.6 0.00 0.00 0.00 55 1009.0
20260509194922 20 142 0.0 0.0 0.00 0.00 0.00 53 1009.1
20260509194407 20 142 0.0 0.0 0.00 0.00 0.00 53 1009.1
20260509193901 20 32 0.0 3.2 0.00 0.00 0.00 55 1009.1
20260509193352 19 133 0.0 0.0 0.00 0.00 0.00 56 1009.2
20260509192836 19 136 0.0 1.6 0.00 0.00 0.00 55 1009.2
20260509191713 18 94 0.0 1.6 0.00 0.00 0.00 57 1009.2
20260509191218 19 141 0.0 0.0 0.00 0.00 0.00 55 1009.2
20260509190715 19 141 0.0 3.2 0.00 0.00 0.00 55 1009.2
20260509185555 19 124 0.0 6.4 0.00 0.00 0.00 57 1009.4
20260509184427 18 136 0.0 1.6 0.00 0.00 0.00 56 1009.6
20260509183915 18 103 0.0 3.2 0.00 0.00 0.00 57 1009.6
20260509183423 18 115 0.0 0.0 0.00 0.00 0.00 59 1009.8
20260509182917 18 90 0.0 0.0 0.00 0.00 0.00 59 1009.9
20260509182403 18 82 0.0 4.8 0.00 0.00 0.00 61 1009.8
20260509181844 17 151 0.0 0.0 0.00 0.00 0.00 64 1009.7
20260509181341 17 151 0.0 0.0 0.00 0.00 0.00 60 1009.8
20260509180825 17 67 0.0 3.2 0.00 0.00 0.00 62 1009.9
20260509175646 17 131 0.0 0.0 0.00 0.00 0.00 62 1010.2
20260509174524 17 117 0.0 0.0 0.00 0.00 0.00 65 1010.7
20260509174007 17 117 0.0 1.6 0.00 0.00 0.00 62 1010.9
20260509173448 17 120 0.0 0.0 0.00 0.00 0.00 60 1011.1
20260509172948 17 119 0.0 1.6 0.00 0.00 0.00 62 1011.0
20260509172456 17 82 0.0 1.6 0.00 0.00 0.00 63 1011.0
20260509171954 16 116 0.0 0.0 0.00 0.00 0.00 65 1011.1
20260509171453 16 169 0.0 0.0 0.00 0.00 0.00 65 1011.3
20260509170947 16 169 0.0 0.0 0.00 0.00 0.00 66 1011.3
20260509170436 16 169 0.0 1.6 0.00 0.00 0.00 65 1011.3
20260509165921 16 123 0.0 0.0 0.00 0.00 0.00 64 1011.3
20260509165415 16 107 0.0 0.0 0.00 0.00 0.00 63 1011.3
20260509164858 16 101 0.0 0.0 0.00 0.00 0.00 63 1011.1
20260509164404 16 101 0.0 1.6 0.00 0.00 0.00 64 1011.0
20260509163219 16 73 0.0 0.0 0.00 0.00 0.00 61 1010.8
20260509162728 16 72 0.0 0.0 0.00 0.00 0.00 61 1010.9
20260509162228 16 73 0.0 0.0 0.00 0.00 0.00 61 1010.9
20260509161728 16 42 0.0 4.8 0.00 0.00 0.00 60 1011.0
20260509161219 16 34 0.0 1.6 0.00 0.00 0.00 63 1011.1
20260509160704 16 20 0.0 0.0 0.00 0.00 0.00 63 1011.2
20260509160208 16 17 0.0 0.0 0.00 0.00 0.00 60 1011.1
20260509155702 16 273 0.0 0.0 0.00 0.00 0.00 61 1011.1
20260509155207 16 274 0.0 3.2 0.00 0.00 0.00 61 1011.2
20260509154702 16 26 0.0 0.0 0.00 0.00 0.00 61 1011.3
20260509154203 16 29 0.0 1.6 0.00 0.00 0.00 63 1011.4
20260509153041 16 98 0.0 0.0 0.00 0.00 0.00 62 1011.3
20260509152530 16 97 0.0 0.0 0.00 0.00 0.00 66 1011.3
20260509152031 16 98 0.0 0.0 0.00 0.00 0.00 65 1011.4
20260509151533 16 98 0.0 0.0 0.00 0.00 0.00 63 1011.4
20260509145757 15 137 0.0 1.6 0.00 0.00 0.00 67 1011.6
20260509145241 15 136 0.0 0.0 0.00 0.00 0.00 66 1011.6
20260509144747 15 138 0.0 0.0 0.00 0.00 0.00 66 1011.7
20260509144229 15 130 0.0 0.0 0.00 0.00 0.00 66 1011.6
20260509143738 15 86 0.0 0.0 0.00 0.00 0.00 67 1011.6
20260509143247 15 83 0.0 0.0 0.00 0.00 0.00 66 1011.7
20260509142751 14 84 0.0 1.6 0.00 0.00 0.00 68 1011.8
20260509141614 14 73 0.0 0.0 0.00 0.00 0.00 67 1011.5
20260509141119 14 72 0.0 0.0 0.00 0.00 0.00 68 1011.3
20260509140614 14 69 0.0 0.0 0.00 0.00 0.00 68 1011.1
20260509135605 14 13 0.0 1.6 0.00 0.00 0.00 66 1011.0
20260509134427 14 281 0.0 0.0 0.00 0.00 0.00 68 1011.3
20260509133257 14 280 0.0 0.0 0.00 0.00 0.00 64 1011.4
20260509132130 14 280 0.0 3.2 0.00 0.00 0.00 65 1011.5
20260509131611 14 324 0.0 0.0 0.00 0.00 0.00 67 1011.4
20260509131053 13 326 0.0 0.0 0.00 0.00 0.00 66 1011.3
20260509130537 13 329 0.0 0.0 0.00 0.00 0.00 68 1011.2
20260509130020 13 329 0.0 0.0 0.00 0.00 0.00 68 1011.4
20260509125519 13 329 0.0 0.0 0.00 0.00 0.00 68 1011.3
20260509125018 13 329 0.0 0.0 0.00 0.00 0.00 69 1011.3
20260509123845 13 329 0.0 0.0 0.00 0.00 0.00 69 1011.3
20260509123347 13 329 0.0 0.0 0.00 0.00 0.00 70 1011.4
20260509122239 13 329 0.0 0.0 0.00 0.00 0.00 68 1011.4
20260509121747 13 329 0.0 0.0 0.00 0.00 0.00 67 1011.5
20260509121246 13 329 0.0 0.0 0.00 0.00 0.00 67 1011.5
20260509120736 13 329 0.0 0.0 0.00 0.00 0.00 67 1011.5
20260509120223 13 328 0.0 0.0 0.00 0.00 0.00 63 1011.5
20260509115733 12 329 0.0 0.0 0.00 0.00 0.00 62 1011.3
20260509115216 12 328 0.0 0.0 0.00 0.00 0.00 66 1011.2
20260509114719 12 18 0.0 0.0 0.00 0.00 0.00 68 1011.0
20260509113555 12 18 0.0 0.0 0.00 0.00 0.00 71 1011.1
20260509113052 12 9 0.0 3.2 0.00 0.00 0.00 70 1011.1
20260509112533 11 346 0.0 0.0 0.00 0.00 0.00 72 1011.1
20260509112042 11 343 0.0 0.0 0.00 0.00 0.00 72 1011.2
20260509111543 11 343 0.0 0.0 0.00 0.00 0.00 73 1011.3
20260509110403 12 344 0.0 0.0 0.00 0.00 0.00 70 1011.2
20260509105847 11 351 0.0 0.0 0.00 0.00 0.00 69 1011.1
20260509104108 11 351 0.0 0.0 0.00 0.00 0.00 68 1010.9
20260509103557 11 351 0.0 0.0 0.00 0.00 0.00 69 1010.8
20260509103045 11 351 0.0 0.0 0.00 0.00 0.00 69 1010.9
20260509102539 11 351 0.0 0.0 0.00 0.00 0.00 68 1010.9
20260509102037 11 351 0.0 0.0 0.00 0.00 0.00 68 1011.0
20260509101525 11 351 0.0 0.0 0.00 0.00 0.00 68 1010.9
20260509100343 11 351 0.0 0.0 0.00 0.00 0.00 68 1010.8
20260509095852 11 351 0.0 0.0 0.00 0.00 0.00 68 1010.9
20260509095357 11 351 0.0 0.0 0.00 0.00 0.00 67 1010.9
20260509094905 11 351 0.0 0.0 0.00 0.00 0.00 67 1010.8
20260509094403 11 351 0.0 0.0 0.00 0.00 0.00 67 1010.8
20260509093853 11 351 0.0 0.0 0.00 0.00 0.00 68 1010.9
20260509091453 11 351 0.0 0.0 0.00 0.00 0.00 66 1010.9
20260509091001 11 351 0.0 0.0 0.00 0.00 0.00 66 1011.0
20260509090452 11 351 0.0 0.0 0.00 0.00 0.00 65 1010.9
20260509084715 12 351 0.0 0.0 0.00 0.00 0.00 64 1011.1
20260509084221 12 351 0.0 0.0 0.00 0.00 0.00 65 1011.0
20260509083702 12 351 0.0 0.0 0.00 0.00 0.00 64 1011.0
20260509083205 12 351 0.0 0.0 0.00 0.00 0.00 65 1011.1
20260509082648 12 351 0.0 0.0 0.00 0.00 0.00 65 1011.0
20260509082150 12 351 0.0 0.0 0.00 0.00 0.00 63 1011.1
20260509081635 12 351 0.0 0.0 0.00 0.00 0.00 63 1011.2
20260509081118 12 351 0.0 0.0 0.00 0.00 0.00 64 1011.1
20260509075953 12 351 0.0 0.0 0.00 0.00 0.00 65 1011.0
20260509074848 12 351 0.0 0.0 0.00 0.00 0.00 63 1011.0
20260509074342 12 351 0.0 0.0 0.00 0.00 0.00 64 1011.0